Time,TemperatureF,DewpointF,PressureIn,WindDirection,WindDirectionDegrees,WindSpeedMPH,WindSpeedGustMPH,Humidity,HourlyPrecipIn,Conditions,Clouds,dailyrainin,SoftwareType,DateUTC
2013-04-23 00:01:00,41.4,30.5,30.56,East,84,8.0,9.0,65,0.00,,,0.00,Wunderground v.1.15,2013-04-23 04:01:00,
2013-04-23 00:02:00,41.3,30.4,30.56,East,83,3.0,9.0,65,0.00,,,0.00,Wunderground v.1.15,2013-04-23 04:02:00,
2013-04-23 00:03:00,41.3,30.4,30.56,East,87,6.0,9.0,65,0.00,,,0.00,Wunderground v.1.15,2013-04-23 04:03:00,
2013-04-23 00:04:00,41.3,30.4,30.56,East,101,6.0,9.0,65,0.00,,,0.00,Wunderground v.1.15,2013-04-23 04:04:00,
2013-04-23 00:06:00,41.3,30.4,30.56,East,80,10.0,10.0,65,0.00,,,0.00,Wunderground v.1.15,2013-04-23 04:06:00,
2013-04-23 00:11:00,41.3,30.4,30.56,ENE,71,8.0,9.0,65,0.00,,,0.00,Wunderground v.1.15,2013-04-23 04:11:00,
2013-04-23 00:16:00,41.3,30.4,30.56,East,101,6.0,9.0,65,0.00,,,0.00,Wunderground v.1.15,2013-04-23 04:16:00,
2013-04-23 00:21:00,41.3,30.4,30.56,East,101,8.0,8.0,65,0.00,,,0.00,Wunderground v.1.15,2013-04-23 04:21:00,
2013-04-23 00:26:00,41.4,30.5,30.56,ESE,106,7.0,10.0,65,0.00,,,0.00,Wunderground v.1.15,2013-04-23 04:26:00,
2013-04-23 00:31:00,41.4,30.5,30.56,ESE,115,10.0,10.0,65,0.00,,,0.00,Wunderground v.1.15,2013-04-23 04:31:00,
2013-04-23 00:36:00,41.4,30.5,30.56,East,81,9.0,10.0,65,0.00,,,0.00,Wunderground v.1.15,2013-04-23 04:36:00,
2013-04-23 00:41:00,41.4,30.5,30.55,East,98,11.0,11.0,65,0.00,,,0.00,Wunderground v.1.15,2013-04-23 04:41:00,
2013-04-23 00:47:00,41.4,30.5,30.55,East,82,11.0,11.0,65,0.00,,,0.00,Wunderground v.1.15,2013-04-23 04:47:00,
2013-04-23 00:52:00,41.4,30.5,30.55,ESE,118,9.0,11.0,65,0.00,,,0.00,Wunderground v.1.15,2013-04-23 04:52:00,
2013-04-23 00:57:00,41.4,30.5,30.55,ESE,106,7.0,11.0,65,0.00,,,0.00,Wunderground v.1.15,2013-04-23 04:57:00,
2013-04-23 01:02:00,41.4,30.5,30.55,ESE,103,2.0,8.0,65,0.00,,,0.00,Wunderground v.1.15,2013-04-23 05:02:00,
2013-04-23 01:08:00,41.5,30.6,30.55,ESE,107,5.0,11.0,65,0.00,,,0.00,Wunderground v.1.15,2013-04-23 05:08:00,
2013-04-23 01:13:00,41.5,30.6,30.54,East,86,8.0,11.0,65,0.00,,,0.00,Wunderground v.1.15,2013-04-23 05:13:00,
2013-04-23 01:18:00,41.5,30.6,30.54,ESE,114,3.0,11.0,65,0.00,,,0.00,Wunderground v.1.15,2013-04-23 05:18:00,
2013-04-23 01:23:00,41.5,30.6,30.54,ENE,72,3.0,13.0,65,0.00,,,0.00,Wunderground v.1.15,2013-04-23 05:23:00,
2013-04-23 01:28:00,41.5,30.6,30.54,ESE,103,12.0,13.0,65,0.00,,,0.00,Wunderground v.1.15,2013-04-23 05:28:00,
2013-04-23 01:33:00,41.6,31.1,30.53,ESE,111,10.0,12.0,66,0.00,,,0.00,Wunderground v.1.15,2013-04-23 05:33:00,
2013-04-23 01:39:00,41.6,30.7,30.53,East,96,13.0,13.0,65,0.00,,,0.00,Wunderground v.1.15,2013-04-23 05:39:00,
2013-04-23 01:44:00,41.6,30.7,30.53,East,86,7.0,12.0,65,0.00,,,0.00,Wunderground v.1.15,2013-04-23 05:44:00,
2013-04-23 01:49:00,41.6,30.7,30.53,East,94,5.0,13.0,65,0.00,,,0.00,Wunderground v.1.15,2013-04-23 05:49:00,
2013-04-23 01:54:00,41.6,31.1,30.53,ESE,105,8.0,9.0,66,0.00,,,0.00,Wunderground v.1.15,2013-04-23 05:54:00,
2013-04-23 01:59:00,41.7,31.2,30.52,ENE,75,5.0,9.0,66,0.00,,,0.00,Wunderground v.1.15,2013-04-23 05:59:00,
2013-04-23 02:04:00,41.8,31.3,30.52,ENE,75,5.0,11.0,66,0.00,,,0.00,Wunderground v.1.15,2013-04-23 06:04:00,
2013-04-23 02:09:00,41.7,31.2,30.52,ESE,106,5.0,11.0,66,0.00,,,0.00,Wunderground v.1.15,2013-04-23 06:09:00,
2013-04-23 02:14:00,41.7,31.2,30.51,East,96,5.0,13.0,66,0.00,,,0.00,Wunderground v.1.15,2013-04-23 06:14:00,
2013-04-23 02:19:00,41.7,31.2,30.51,East,95,11.0,14.0,66,0.00,,,0.00,Wunderground v.1.15,2013-04-23 06:19:00,
2013-04-23 02:24:00,41.6,31.1,30.51,ESE,109,4.0,13.0,66,0.00,,,0.00,Wunderground v.1.15,2013-04-23 06:24:00,
2013-04-23 02:29:00,41.7,31.2,30.51,East,91,10.0,13.0,66,0.00,,,0.00,Wunderground v.1.15,2013-04-23 06:29:00,
2013-04-23 02:34:00,41.6,31.4,30.50,ESE,103,8.0,13.0,67,0.00,,,0.00,Wunderground v.1.15,2013-04-23 06:34:00,
2013-04-23 02:39:00,41.7,31.2,30.50,East,91,7.0,13.0,66,0.00,,,0.00,Wunderground v.1.15,2013-04-23 06:39:00,
2013-04-23 02:44:00,41.6,31.1,30.50,ESE,107,5.0,13.0,66,0.00,,,0.00,Wunderground v.1.15,2013-04-23 06:44:00,
2013-04-23 02:49:00,41.7,31.2,30.50,East,85,9.0,13.0,66,0.00,,,0.00,Wunderground v.1.15,2013-04-23 06:49:00,
2013-04-23 02:54:00,41.7,31.2,30.50,East,98,9.0,11.0,66,0.00,,,0.00,Wunderground v.1.15,2013-04-23 06:54:00,
2013-04-23 02:59:00,41.7,31.2,30.49,East,84,6.0,12.0,66,0.00,,,0.00,Wunderground v.1.15,2013-04-23 06:59:00,
2013-04-23 03:04:00,41.6,31.1,30.49,ENE,77,7.0,11.0,66,0.00,,,0.00,Wunderground v.1.15,2013-04-23 07:04:00,
2013-04-23 03:09:00,41.6,31.1,30.49,ENE,65,7.0,11.0,66,0.00,,,0.00,Wunderground v.1.15,2013-04-23 07:09:00,
2013-04-23 03:14:00,41.6,31.4,30.49,ENE,57,5.0,9.0,67,0.00,,,0.00,Wunderground v.1.15,2013-04-23 07:14:00,
2013-04-23 03:19:00,41.6,31.4,30.49,ENE,72,7.0,9.0,67,0.00,,,0.00,Wunderground v.1.15,2013-04-23 07:19:00,
2013-04-23 03:24:00,41.6,31.4,30.48,East,94,6.0,9.0,67,0.00,,,0.00,Wunderground v.1.15,2013-04-23 07:24:00,
2013-04-23 03:29:00,41.6,31.4,30.48,East,86,9.0,13.0,67,0.00,,,0.00,Wunderground v.1.15,2013-04-23 07:29:00,
2013-04-23 03:34:00,41.6,31.4,30.48,NE,46,5.0,11.0,67,0.00,,,0.00,Wunderground v.1.15,2013-04-23 07:34:00,
2013-04-23 03:39:00,41.6,31.4,30.48,ENE,78,4.0,11.0,67,0.00,,,0.00,Wunderground v.1.15,2013-04-23 07:39:00,
2013-04-23 03:44:00,41.6,31.8,30.48,ENE,76,8.0,8.0,68,0.00,,,0.00,Wunderground v.1.15,2013-04-23 07:44:00,
2013-04-23 03:49:00,41.5,31.7,30.47,East,101,3.0,12.0,68,0.00,,,0.00,Wunderground v.1.15,2013-04-23 07:49:00,
2013-04-23 03:54:00,41.6,31.8,30.47,East,86,3.0,9.0,68,0.00,,,0.00,Wunderground v.1.15,2013-04-23 07:54:00,
2013-04-23 03:59:00,41.6,32.2,30.47,ENE,69,10.0,16.0,69,0.00,,,0.00,Wunderground v.1.15,2013-04-23 07:59:00,
2013-04-23 04:04:00,41.6,31.8,30.47,East,101,6.0,13.0,68,0.00,,,0.00,Wunderground v.1.15,2013-04-23 08:04:00,
2013-04-23 04:09:00,41.5,32.1,30.48,ENE,76,11.0,15.0,69,0.00,,,0.00,Wunderground v.1.15,2013-04-23 08:09:00,
2013-04-23 04:14:00,41.5,32.1,30.47,ENE,61,4.0,11.0,69,0.00,,,0.00,Wunderground v.1.15,2013-04-23 08:14:00,
2013-04-23 04:19:00,41.6,32.2,30.47,ENE,69,2.0,11.0,69,0.00,,,0.00,Wunderground v.1.15,2013-04-23 08:19:00,
2013-04-23 04:24:00,41.6,32.2,30.47,ESE,109,3.0,9.0,69,0.00,,,0.00,Wunderground v.1.15,2013-04-23 08:24:00,
2013-04-23 04:29:00,41.7,32.3,30.47,ESE,104,9.0,15.0,69,0.00,,,0.00,Wunderground v.1.15,2013-04-23 08:29:00,
2013-04-23 04:34:00,41.6,32.2,30.47,ENE,71,8.0,13.0,69,0.00,,,0.00,Wunderground v.1.15,2013-04-23 08:34:00,
2013-04-23 04:39:00,41.6,32.5,30.47,ENE,71,11.0,13.0,70,0.00,,,0.00,Wunderground v.1.15,2013-04-23 08:39:00,
2013-04-23 04:44:00,41.6,32.5,30.47,ENE,64,4.0,10.0,70,0.00,,,0.00,Wunderground v.1.15,2013-04-23 08:44:00,
2013-04-23 04:49:00,41.6,32.5,30.47,East,96,6.0,15.0,70,0.00,,,0.00,Wunderground v.1.15,2013-04-23 08:49:00,
2013-04-23 04:54:00,41.6,32.5,30.46,NE,51,5.0,11.0,70,0.00,,,0.00,Wunderground v.1.15,2013-04-23 08:54:00,
2013-04-23 04:59:00,41.6,32.5,30.46,ENE,72,7.0,13.0,70,0.00,,,0.00,Wunderground v.1.15,2013-04-23 08:59:00,
2013-04-23 05:04:00,41.6,32.9,30.46,ENE,63,9.0,12.0,71,0.00,,,0.00,Wunderground v.1.15,2013-04-23 09:04:00,
2013-04-23 05:09:00,41.5,32.8,30.46,ENE,74,10.0,13.0,71,0.00,,,0.00,Wunderground v.1.15,2013-04-23 09:09:00,
2013-04-23 05:14:00,41.6,32.9,30.46,East,88,9.0,13.0,71,0.00,,,0.00,Wunderground v.1.15,2013-04-23 09:14:00,
2013-04-23 05:19:00,41.6,32.9,30.46,ENE,71,4.0,13.0,71,0.00,,,0.00,Wunderground v.1.15,2013-04-23 09:19:00,
2013-04-23 05:24:00,41.6,33.2,30.46,ENE,60,11.0,15.0,72,0.00,,,0.00,Wunderground v.1.15,2013-04-23 09:24:00,
2013-04-23 05:29:00,41.6,33.2,30.46,ENE,61,9.0,16.0,72,0.00,,,0.00,Wunderground v.1.15,2013-04-23 09:29:00,
2013-04-23 05:34:00,41.5,33.5,30.45,NE,49,9.0,16.0,73,0.00,,,0.00,Wunderground v.1.15,2013-04-23 09:34:00,
2013-04-23 05:39:00,41.5,33.5,30.46,East,82,8.0,16.0,73,0.00,,,0.00,Wunderground v.1.15,2013-04-23 09:39:00,
2013-04-23 05:45:00,41.5,33.5,30.46,East,84,11.0,15.0,73,0.00,,,0.00,Wunderground v.1.15,2013-04-23 09:45:00,
2013-04-23 05:50:00,41.5,33.5,30.46,ENE,74,12.0,12.0,73,0.00,,,0.00,Wunderground v.1.15,2013-04-23 09:50:00,
2013-04-23 05:55:00,41.5,33.8,30.46,East,84,3.0,12.0,74,0.00,,,0.00,Wunderground v.1.15,2013-04-23 09:55:00,
2013-04-23 06:00:00,41.5,33.8,30.46,East,81,5.0,7.0,74,0.00,,,0.00,Wunderground v.1.15,2013-04-23 10:00:00,
2013-04-23 06:05:00,41.5,34.2,30.46,East,90,8.0,13.0,75,0.00,,,0.00,Wunderground v.1.15,2013-04-23 10:05:00,
2013-04-23 06:10:00,41.5,34.2,30.46,ENE,58,13.0,13.0,75,0.00,,,0.00,Wunderground v.1.15,2013-04-23 10:10:00,
2013-04-23 06:15:00,41.5,34.2,30.46,ENE,57,9.0,13.0,75,0.00,,,0.00,Wunderground v.1.15,2013-04-23 10:15:00,
2013-04-23 06:20:00,41.5,34.5,30.46,ENE,78,11.0,11.0,76,0.00,,,0.00,Wunderground v.1.15,2013-04-23 10:20:00,
2013-04-23 06:25:00,41.5,34.5,30.46,ENE,74,10.0,11.0,76,0.00,,,0.00,Wunderground v.1.15,2013-04-23 10:25:00,
2013-04-23 06:30:00,41.5,34.8,30.45,East,88,5.0,8.0,77,0.00,,,0.00,Wunderground v.1.15,2013-04-23 10:30:00,
2013-04-23 06:35:00,41.5,35.2,30.46,NE,49,4.0,11.0,78,0.00,,,0.00,Wunderground v.1.15,2013-04-23 10:35:00,
2013-04-23 06:40:00,41.4,35.4,30.46,ENE,74,3.0,6.0,79,0.00,,,0.00,Wunderground v.1.15,2013-04-23 10:40:00,
2013-04-23 06:45:00,41.3,35.3,30.46,ENE,69,7.0,9.0,79,0.00,,,0.00,Wunderground v.1.15,2013-04-23 10:45:00,
2013-04-23 06:50:00,41.2,35.5,30.45,NNE,31,7.0,7.0,80,0.00,,,0.00,Wunderground v.1.15,2013-04-23 10:50:00,
2013-04-23 06:55:00,41.1,35.4,30.46,NE,51,6.0,9.0,80,0.00,,,0.00,Wunderground v.1.15,2013-04-23 10:55:00,
2013-04-23 07:00:00,40.9,35.2,30.45,ENE,59,3.0,7.0,80,0.00,,,0.00,Wunderground v.1.15,2013-04-23 11:00:00,
2013-04-23 07:05:00,40.8,35.4,30.45,ENE,61,2.0,8.0,81,0.00,,,0.00,Wunderground v.1.15,2013-04-23 11:05:00,
2013-04-23 07:10:00,40.8,35.7,30.45,NE,47,2.0,4.0,82,0.00,,,0.00,Wunderground v.1.15,2013-04-23 11:10:00,
2013-04-23 07:15:00,40.8,35.7,30.45,NE,40,5.0,8.0,82,0.00,,,0.00,Wunderground v.1.15,2013-04-23 11:15:00,
2013-04-23 07:20:00,40.8,35.7,30.45,NNE,20,2.0,8.0,82,0.00,,,0.01,Wunderground v.1.15,2013-04-23 11:20:00,
2013-04-23 07:25:00,40.8,36.0,30.45,NE,53,1.0,9.0,83,0.00,,,0.01,Wunderground v.1.15,2013-04-23 11:25:00,
2013-04-23 07:30:00,40.8,36.0,30.45,ENE,73,2.0,4.0,83,0.00,,,0.01,Wunderground v.1.15,2013-04-23 11:30:00,
2013-04-23 07:35:00,40.9,36.1,30.45,East,90,11.0,11.0,83,0.00,,,0.01,Wunderground v.1.15,2013-04-23 11:35:00,
2013-04-23 07:40:00,41.0,38.0,30.45,ENE,75,5.0,6.0,89,0.00,,,0.01,Wunderground v.1.15,2013-04-23 11:40:00,
2013-04-23 07:45:00,41.0,36.2,30.45,ENE,69,3.0,10.0,83,0.00,,,0.01,Wunderground v.1.15,2013-04-23 11:45:00,
2013-04-23 07:50:00,41.1,36.6,30.45,ENE,64,7.0,9.0,84,0.00,,,0.01,Wunderground v.1.15,2013-04-23 11:50:00,
2013-04-23 07:55:00,41.1,36.6,30.45,ENE,74,5.0,10.0,84,0.00,,,0.01,Wunderground v.1.15,2013-04-23 11:55:00,
2013-04-23 08:00:00,41.1,36.6,30.45,East,86,7.0,8.0,84,0.00,,,0.01,Wunderground v.1.15,2013-04-23 12:00:00,
2013-04-23 08:05:00,41.2,36.7,30.45,ENE,67,13.0,13.0,84,0.00,,,0.02,Wunderground v.1.15,2013-04-23 12:05:00,
2013-04-23 08:10:00,41.3,36.8,30.45,ENE,61,7.0,8.0,84,0.00,,,0.02,Wunderground v.1.15,2013-04-23 12:10:00,
2013-04-23 08:16:00,41.3,36.8,30.45,ENE,76,7.0,10.0,84,0.00,,,0.02,Wunderground v.1.15,2013-04-23 12:16:00,
2013-04-23 08:21:00,41.5,37.3,30.45,ENE,71,8.0,10.0,85,0.00,,,0.02,Wunderground v.1.15,2013-04-23 12:21:00,
2013-04-23 08:25:00,41.5,37.3,30.44,NE,56,5.0,10.0,85,0.00,,,0.02,Wunderground v.1.15,2013-04-23 12:25:00,
2013-04-23 08:31:00,41.5,37.3,30.44,East,93,7.0,11.0,85,0.00,,,0.02,Wunderground v.1.15,2013-04-23 12:31:00,
2013-04-23 08:36:00,41.4,37.2,30.44,NE,45,2.0,11.0,85,0.00,,,0.02,Wunderground v.1.15,2013-04-23 12:36:00,
2013-04-23 08:40:00,41.4,37.2,30.44,NE,53,8.0,11.0,85,0.00,,,0.02,Wunderground v.1.15,2013-04-23 12:40:00,
2013-04-23 08:46:00,41.4,37.2,30.44,ENE,78,10.0,11.0,85,0.00,,,0.02,Wunderground v.1.15,2013-04-23 12:46:00,
2013-04-23 08:51:00,41.4,37.2,30.44,ENE,64,7.0,8.0,85,0.00,,,0.02,Wunderground v.1.15,2013-04-23 12:51:00,
2013-04-23 08:56:00,41.5,37.3,30.43,ENE,60,5.0,12.0,85,0.00,,,0.02,Wunderground v.1.15,2013-04-23 12:56:00,
2013-04-23 09:01:00,41.5,37.3,30.44,ENE,69,4.0,12.0,85,0.00,,,0.02,Wunderground v.1.15,2013-04-23 13:01:00,
2013-04-23 09:06:00,41.5,37.3,30.43,ENE,78,8.0,12.0,85,0.00,,,0.02,Wunderground v.1.15,2013-04-23 13:06:00,
2013-04-23 09:11:00,41.5,37.3,30.43,ENE,76,4.0,7.0,85,0.00,,,0.02,Wunderground v.1.15,2013-04-23 13:11:00,
2013-04-23 09:16:00,41.6,37.4,30.43,NNE,19,6.0,9.0,85,0.00,,,0.02,Wunderground v.1.15,2013-04-23 13:16:00,
2013-04-23 09:21:00,41.7,37.5,30.43,East,86,1.0,7.0,85,0.00,,,0.02,Wunderground v.1.15,2013-04-23 13:21:00,
2013-04-23 09:26:00,41.8,37.6,30.43,NNE,32,8.0,14.0,85,0.00,,,0.02,Wunderground v.1.15,2013-04-23 13:26:00,
2013-04-23 09:31:00,41.7,37.5,30.43,ENE,67,5.0,8.0,85,0.00,,,0.02,Wunderground v.1.15,2013-04-23 13:31:00,
2013-04-23 09:36:00,41.7,37.5,30.43,NE,41,6.0,13.0,85,0.00,,,0.02,Wunderground v.1.15,2013-04-23 13:36:00,
2013-04-23 09:41:00,41.8,37.6,30.43,ENE,76,10.0,11.0,85,0.00,,,0.02,Wunderground v.1.15,2013-04-23 13:41:00,
2013-04-23 09:46:00,41.8,37.6,30.42,ENE,61,7.0,13.0,85,0.00,,,0.02,Wunderground v.1.15,2013-04-23 13:46:00,
2013-04-23 09:51:00,41.8,37.6,30.42,NE,44,5.0,10.0,85,0.00,,,0.02,Wunderground v.1.15,2013-04-23 13:51:00,
2013-04-23 09:56:00,41.8,37.6,30.43,East,84,7.0,14.0,85,0.00,,,0.02,Wunderground v.1.15,2013-04-23 13:56:00,
2013-04-23 10:01:00,41.9,37.7,30.42,ENE,59,7.0,12.0,85,0.00,,,0.02,Wunderground v.1.15,2013-04-23 14:01:00,
2013-04-23 10:06:00,41.9,37.7,30.42,NE,40,5.0,15.0,85,0.00,,,0.02,Wunderground v.1.15,2013-04-23 14:06:00,
2013-04-23 10:11:00,41.9,37.7,30.42,ENE,62,4.0,10.0,85,0.00,,,0.02,Wunderground v.1.15,2013-04-23 14:11:00,
2013-04-23 10:16:00,41.9,37.7,30.42,NE,53,4.0,10.0,85,0.00,,,0.02,Wunderground v.1.15,2013-04-23 14:16:00,
2013-04-23 10:21:00,41.9,37.7,30.42,East,82,6.0,9.0,85,0.00,,,0.02,Wunderground v.1.15,2013-04-23 14:21:00,
2013-04-23 10:26:00,42.0,37.8,30.42,ENE,67,7.0,12.0,85,0.00,,,0.02,Wunderground v.1.15,2013-04-23 14:26:00,
2013-04-23 10:31:00,42.0,37.8,30.42,ENE,65,8.0,9.0,85,0.00,,,0.02,Wunderground v.1.15,2013-04-23 14:31:00,
2013-04-23 10:36:00,42.0,37.8,30.42,East,101,6.0,15.0,85,0.00,,,0.02,Wunderground v.1.15,2013-04-23 14:36:00,
2013-04-23 10:41:00,42.0,37.8,30.42,ENE,61,5.0,11.0,85,0.00,,,0.02,Wunderground v.1.15,2013-04-23 14:41:00,
2013-04-23 10:46:00,42.1,37.9,30.41,ENE,75,10.0,15.0,85,0.00,,,0.02,Wunderground v.1.15,2013-04-23 14:46:00,
2013-04-23 10:52:00,42.1,37.9,30.41,East,82,7.0,8.0,85,0.00,,,0.02,Wunderground v.1.15,2013-04-23 14:52:00,
2013-04-23 10:57:00,42.2,38.3,30.41,ENE,66,9.0,14.0,86,0.00,,,0.02,Wunderground v.1.15,2013-04-23 14:57:00,
2013-04-23 11:02:00,42.2,38.0,30.41,NE,52,3.0,11.0,85,0.00,,,0.02,Wunderground v.1.15,2013-04-23 15:02:00,
2013-04-23 11:07:00,42.2,38.0,30.41,ENE,74,14.0,15.0,85,0.00,,,0.02,Wunderground v.1.15,2013-04-23 15:07:00,
2013-04-23 11:12:00,42.3,38.1,30.41,ENE,58,8.0,10.0,85,0.00,,,0.02,Wunderground v.1.15,2013-04-23 15:12:00,
2013-04-23 11:17:00,42.2,38.0,30.40,East,98,6.0,14.0,85,0.00,,,0.02,Wunderground v.1.15,2013-04-23 15:17:00,
2013-04-23 11:22:00,42.3,38.1,30.40,East,91,8.0,13.0,85,0.00,,,0.02,Wunderground v.1.15,2013-04-23 15:22:00,
2013-04-23 11:27:00,42.4,38.2,30.40,NE,48,7.0,13.0,85,0.00,,,0.02,Wunderground v.1.15,2013-04-23 15:27:00,
2013-04-23 11:32:00,42.4,38.2,30.40,ENE,58,8.0,10.0,85,0.00,,,0.02,Wunderground v.1.15,2013-04-23 15:32:00,
2013-04-23 11:37:00,42.5,38.3,30.40,East,95,6.0,12.0,85,0.00,,,0.02,Wunderground v.1.15,2013-04-23 15:37:00,
2013-04-23 11:42:00,42.6,38.4,30.40,East,93,7.0,8.0,85,0.00,,,0.02,Wunderground v.1.15,2013-04-23 15:42:00,
2013-04-23 11:47:00,42.6,38.4,30.40,ENE,74,12.0,15.0,85,0.00,,,0.02,Wunderground v.1.15,2013-04-23 15:47:00,
2013-04-23 11:52:00,42.5,38.3,30.40,East,87,10.0,10.0,85,0.00,,,0.02,Wunderground v.1.15,2013-04-23 15:52:00,
2013-04-23 11:57:00,42.5,38.3,30.40,ENE,72,7.0,17.0,85,0.00,,,0.02,Wunderground v.1.15,2013-04-23 15:57:00,
2013-04-23 12:02:00,42.5,38.3,30.40,NNE,25,7.0,15.0,85,0.00,,,0.02,Wunderground v.1.15,2013-04-23 16:02:00,
2013-04-23 12:07:00,42.4,38.2,30.39,ENE,75,11.0,15.0,85,0.00,,,0.02,Wunderground v.1.15,2013-04-23 16:07:00,
2013-04-23 12:12:00,42.5,38.3,30.39,East,83,7.0,16.0,85,0.00,,,0.02,Wunderground v.1.15,2013-04-23 16:12:00,
2013-04-23 12:17:00,42.5,38.3,30.38,East,87,15.0,16.0,85,0.00,,,0.02,Wunderground v.1.15,2013-04-23 16:17:00,
2013-04-23 12:22:00,42.6,38.4,30.37,ESE,103,8.0,11.0,85,0.00,,,0.02,Wunderground v.1.15,2013-04-23 16:22:00,
2013-04-23 12:27:00,42.7,38.5,30.37,ENE,68,5.0,11.0,85,0.00,,,0.02,Wunderground v.1.15,2013-04-23 16:27:00,
2013-04-23 12:32:00,42.8,38.6,30.37,NE,55,10.0,11.0,85,0.00,,,0.02,Wunderground v.1.15,2013-04-23 16:32:00,
2013-04-23 12:37:00,42.8,38.6,30.37,ENE,60,17.0,17.0,85,0.00,,,0.02,Wunderground v.1.15,2013-04-23 16:37:00,
2013-04-23 12:42:00,42.8,38.6,30.37,East,89,5.0,15.0,85,0.00,,,0.02,Wunderground v.1.15,2013-04-23 16:42:00,
2013-04-23 12:47:00,42.9,38.7,30.37,NNE,29,10.0,16.0,85,0.00,,,0.02,Wunderground v.1.15,2013-04-23 16:47:00,
2013-04-23 12:52:00,42.8,38.6,30.36,NE,44,7.0,15.0,85,0.00,,,0.02,Wunderground v.1.15,2013-04-23 16:52:00,
2013-04-23 12:57:00,42.8,38.6,30.36,ENE,62,15.0,15.0,85,0.00,,,0.02,Wunderground v.1.15,2013-04-23 16:57:00,
2013-04-23 13:02:00,42.8,38.6,30.36,ENE,63,8.0,15.0,85,0.00,,,0.02,Wunderground v.1.15,2013-04-23 17:02:00,
2013-04-23 13:07:00,42.8,38.6,30.36,NE,55,7.0,15.0,85,0.00,,,0.02,Wunderground v.1.15,2013-04-23 17:07:00,
2013-04-23 13:12:00,42.9,38.7,30.36,East,85,9.0,10.0,85,0.00,,,0.02,Wunderground v.1.15,2013-04-23 17:12:00,
2013-04-23 13:17:00,42.9,38.7,30.35,ENE,73,8.0,14.0,85,0.00,,,0.02,Wunderground v.1.15,2013-04-23 17:17:00,
2013-04-23 13:22:00,43.0,38.8,30.35,ENE,65,10.0,13.0,85,0.00,,,0.02,Wunderground v.1.15,2013-04-23 17:22:00,
2013-04-23 13:27:00,43.0,38.8,30.35,ENE,76,11.0,15.0,85,0.00,,,0.02,Wunderground v.1.15,2013-04-23 17:27:00,
2013-04-23 13:32:00,43.0,38.8,30.35,ENE,63,5.0,8.0,85,0.00,,,0.02,Wunderground v.1.15,2013-04-23 17:32:00,
2013-04-23 13:37:00,43.1,38.9,30.34,NNE,17,7.0,10.0,85,0.00,,,0.02,Wunderground v.1.15,2013-04-23 17:37:00,
2013-04-23 13:42:00,43.1,38.9,30.34,NE,36,2.0,8.0,85,0.00,,,0.02,Wunderground v.1.15,2013-04-23 17:42:00,
2013-04-23 13:47:00,43.1,38.9,30.34,ENE,58,9.0,13.0,85,0.00,,,0.02,Wunderground v.1.15,2013-04-23 17:47:00,
2013-04-23 13:52:00,43.0,38.5,30.33,ENE,57,5.0,14.0,84,0.00,,,0.02,Wunderground v.1.15,2013-04-23 17:52:00,
2013-04-23 13:57:00,43.0,38.8,30.33,East,92,6.0,15.0,85,0.00,,,0.02,Wunderground v.1.15,2013-04-23 17:57:00,
2013-04-23 14:02:00,43.0,38.8,30.33,ENE,71,17.0,17.0,85,0.00,,,0.02,Wunderground v.1.15,2013-04-23 18:02:00,
2013-04-23 14:07:00,43.0,38.8,30.33,NE,52,6.0,17.0,85,0.00,,,0.02,Wunderground v.1.15,2013-04-23 18:07:00,
2013-04-23 14:12:00,43.0,38.5,30.33,NE,41,5.0,14.0,84,0.00,,,0.02,Wunderground v.1.15,2013-04-23 18:12:00,
2013-04-23 14:17:00,42.9,38.4,30.33,NNE,31,9.0,16.0,84,0.00,,,0.02,Wunderground v.1.15,2013-04-23 18:17:00,
2013-04-23 14:22:00,42.9,38.4,30.32,East,84,6.0,14.0,84,0.00,,,0.02,Wunderground v.1.15,2013-04-23 18:22:00,
2013-04-23 14:27:00,42.9,38.4,30.31,NE,53,7.0,14.0,84,0.00,,,0.02,Wunderground v.1.15,2013-04-23 18:27:00,
2013-04-23 14:32:00,42.9,38.7,30.31,ENE,73,15.0,18.0,85,0.00,,,0.02,Wunderground v.1.15,2013-04-23 18:32:00,
2013-04-23 14:37:00,42.9,38.4,30.31,East,79,7.0,18.0,84,0.00,,,0.02,Wunderground v.1.15,2013-04-23 18:37:00,
2013-04-23 14:42:00,42.9,38.7,30.30,North,355,8.0,14.0,85,0.00,,,0.02,Wunderground v.1.15,2013-04-23 18:42:00,
2013-04-23 14:47:00,42.9,38.7,30.30,ENE,78,7.0,15.0,85,0.00,,,0.02,Wunderground v.1.15,2013-04-23 18:47:00,
2013-04-23 14:52:00,42.9,38.4,30.30,ENE,72,7.0,9.0,84,0.00,,,0.02,Wunderground v.1.15,2013-04-23 18:52:00,
2013-04-23 14:57:00,42.8,38.3,30.30,East,86,9.0,13.0,84,0.00,,,0.02,Wunderground v.1.15,2013-04-23 18:57:00,
2013-04-23 15:02:00,42.8,38.6,30.29,East,79,14.0,14.0,85,0.00,,,0.02,Wunderground v.1.15,2013-04-23 19:02:00,
2013-04-23 15:08:00,42.9,38.7,30.29,East,94,5.0,16.0,85,0.00,,,0.02,Wunderground v.1.15,2013-04-23 19:08:00,
2013-04-23 15:13:00,42.9,38.7,30.29,ENE,62,9.0,15.0,85,0.00,,,0.02,Wunderground v.1.15,2013-04-23 19:13:00,
2013-04-23 15:18:00,42.8,38.6,30.29,ENE,64,5.0,15.0,85,0.00,,,0.02,Wunderground v.1.15,2013-04-23 19:18:00,
2013-04-23 15:22:00,42.8,38.6,30.29,NE,46,9.0,11.0,85,0.00,,,0.02,Wunderground v.1.15,2013-04-23 19:22:00,
2013-04-23 15:28:00,42.7,38.5,30.28,ENE,58,14.0,17.0,85,0.00,,,0.02,Wunderground v.1.15,2013-04-23 19:28:00,
2013-04-23 15:33:00,42.7,38.5,30.28,North,5,9.0,11.0,85,0.00,,,0.02,Wunderground v.1.15,2013-04-23 19:33:00,
2013-04-23 15:38:00,42.7,38.5,30.28,NE,46,13.0,15.0,85,0.00,,,0.02,Wunderground v.1.15,2013-04-23 19:38:00,
2013-04-23 15:43:00,42.7,38.5,30.28,ENE,63,2.0,12.0,85,0.00,,,0.02,Wunderground v.1.15,2013-04-23 19:43:00,
2013-04-23 15:48:00,42.7,38.5,30.28,ENE,63,8.0,13.0,85,0.00,,,0.02,Wunderground v.1.15,2013-04-23 19:48:00,
2013-04-23 15:53:00,42.7,38.2,30.27,East,80,10.0,15.0,84,0.00,,,0.02,Wunderground v.1.15,2013-04-23 19:53:00,
2013-04-23 15:58:00,42.7,38.2,30.27,ENE,69,11.0,15.0,84,0.00,,,0.02,Wunderground v.1.15,2013-04-23 19:58:00,
2013-04-23 16:03:00,42.7,38.2,30.27,NE,37,8.0,13.0,84,0.00,,,0.02,Wunderground v.1.15,2013-04-23 20:03:00,
2013-04-23 16:08:00,42.7,38.2,30.27,East,79,1.0,13.0,84,0.00,,,0.02,Wunderground v.1.15,2013-04-23 20:08:00,
2013-04-23 16:13:00,42.7,38.2,30.28,East,83,5.0,11.0,84,0.00,,,0.02,Wunderground v.1.15,2013-04-23 20:13:00,
2013-04-23 16:18:00,42.7,38.2,30.27,ENE,69,12.0,20.0,84,0.00,,,0.02,Wunderground v.1.15,2013-04-23 20:18:00,
2013-04-23 16:23:00,42.7,38.2,30.27,North,360,8.0,14.0,84,0.00,,,0.02,Wunderground v.1.15,2013-04-23 20:23:00,
2013-04-23 16:28:00,42.6,38.1,30.26,NNE,30,11.0,17.0,84,0.00,,,0.02,Wunderground v.1.15,2013-04-23 20:28:00,
2013-04-23 16:33:00,42.5,38.0,30.26,NNE,19,12.0,12.0,84,0.00,,,0.02,Wunderground v.1.15,2013-04-23 20:33:00,
2013-04-23 16:38:00,42.6,38.4,30.26,NE,53,4.0,16.0,85,0.00,,,0.02,Wunderground v.1.15,2013-04-23 20:38:00,
2013-04-23 16:43:00,42.6,38.4,30.26,NE,49,7.0,17.0,85,0.00,,,0.02,Wunderground v.1.15,2013-04-23 20:43:00,
2013-04-23 16:49:00,42.6,38.4,30.26,NE,45,6.0,17.0,85,0.00,,,0.02,Wunderground v.1.15,2013-04-23 20:49:00,
2013-04-23 16:54:00,42.7,38.5,30.27,NE,42,12.0,14.0,85,0.00,,,0.02,Wunderground v.1.15,2013-04-23 20:54:00,
2013-04-23 16:59:00,42.7,38.5,30.26,NNW,340,5.0,14.0,85,0.00,,,0.02,Wunderground v.1.15,2013-04-23 20:59:00,
2013-04-23 17:04:00,42.6,38.4,30.26,NE,42,4.0,11.0,85,0.00,,,0.02,Wunderground v.1.15,2013-04-23 21:04:00,
2013-04-23 17:09:00,42.6,38.4,30.26,NE,44,12.0,13.0,85,0.00,,,0.02,Wunderground v.1.15,2013-04-23 21:09:00,
2013-04-23 17:14:00,42.5,38.3,30.26,ENE,67,16.0,16.0,85,0.00,,,0.03,Wunderground v.1.15,2013-04-23 21:14:00,
2013-04-23 17:19:00,42.5,38.3,30.26,NNE,28,6.0,16.0,85,0.00,,,0.03,Wunderground v.1.15,2013-04-23 21:19:00,
2013-04-23 17:24:00,42.5,38.3,30.26,NNE,24,8.0,18.0,85,0.00,,,0.03,Wunderground v.1.15,2013-04-23 21:24:00,
2013-04-23 17:29:00,42.5,38.3,30.26,ENE,63,1.0,18.0,85,0.00,,,0.03,Wunderground v.1.15,2013-04-23 21:29:00,
2013-04-23 17:34:00,42.5,38.3,30.26,NE,56,2.0,8.0,85,0.00,,,0.03,Wunderground v.1.15,2013-04-23 21:34:00,
2013-04-23 17:39:00,42.5,38.3,30.25,NNE,19,11.0,17.0,85,0.00,,,0.03,Wunderground v.1.15,2013-04-23 21:39:00,
2013-04-23 17:44:00,42.4,38.2,30.25,East,92,2.0,15.0,85,0.00,,,0.03,Wunderground v.1.15,2013-04-23 21:44:00,
2013-04-23 17:49:00,42.4,38.2,30.25,North,11,4.0,15.0,85,0.00,,,0.03,Wunderground v.1.15,2013-04-23 21:49:00,
2013-04-23 17:54:00,42.4,38.2,30.24,NNE,29,7.0,15.0,85,0.00,,,0.03,Wunderground v.1.15,2013-04-23 21:54:00,
2013-04-23 17:59:00,42.4,38.2,30.24,NE,34,8.0,18.0,85,0.00,,,0.03,Wunderground v.1.15,2013-04-23 21:59:00,
2013-04-23 18:04:00,42.3,38.1,30.24,NE,40,10.0,16.0,85,0.00,,,0.03,Wunderground v.1.15,2013-04-23 22:04:00,
2013-04-23 18:09:00,42.3,38.1,30.24,NE,36,7.0,16.0,85,0.00,,,0.03,Wunderground v.1.15,2013-04-23 22:09:00,
2013-04-23 18:14:00,42.3,38.1,30.23,East,95,7.0,12.0,85,0.00,,,0.03,Wunderground v.1.15,2013-04-23 22:14:00,
2013-04-23 18:19:00,42.3,38.4,30.23,NE,41,10.0,14.0,86,0.00,,,0.03,Wunderground v.1.15,2013-04-23 22:19:00,
2013-04-23 18:24:00,42.3,38.4,30.22,ENE,67,7.0,15.0,86,0.00,,,0.03,Wunderground v.1.15,2013-04-23 22:24:00,
2013-04-23 18:29:00,42.3,38.4,30.23,North,360,9.0,16.0,86,0.00,,,0.03,Wunderground v.1.15,2013-04-23 22:29:00,
2013-04-23 18:34:00,42.3,38.4,30.22,NE,34,5.0,14.0,86,0.00,,,0.03,Wunderground v.1.15,2013-04-23 22:34:00,
2013-04-23 18:39:00,42.3,38.4,30.22,North,5,6.0,19.0,86,0.00,,,0.03,Wunderground v.1.15,2013-04-23 22:39:00,
2013-04-23 18:44:00,42.3,38.4,30.22,NE,56,3.0,11.0,86,0.00,,,0.03,Wunderground v.1.15,2013-04-23 22:44:00,
2013-04-23 18:49:00,42.4,38.5,30.22,NNE,29,10.0,15.0,86,0.00,,,0.03,Wunderground v.1.15,2013-04-23 22:49:00,
2013-04-23 18:54:00,42.3,38.1,30.22,NNE,26,9.0,14.0,85,0.00,,,0.03,Wunderground v.1.15,2013-04-23 22:54:00,
2013-04-23 18:59:00,42.3,38.4,30.21,ENE,69,5.0,14.0,86,0.00,,,0.03,Wunderground v.1.15,2013-04-23 22:59:00,
2013-04-23 19:04:00,42.3,38.4,30.21,NE,46,7.0,15.0,86,0.00,,,0.03,Wunderground v.1.15,2013-04-23 23:04:00,
2013-04-23 19:09:00,42.4,38.5,30.21,ENE,60,4.0,15.0,86,0.00,,,0.03,Wunderground v.1.15,2013-04-23 23:09:00,
2013-04-23 19:14:00,42.4,38.5,30.21,NE,56,5.0,15.0,86,0.00,,,0.03,Wunderground v.1.15,2013-04-23 23:14:00,
2013-04-23 19:19:00,42.4,38.5,30.21,NE,44,6.0,15.0,86,0.00,,,0.03,Wunderground v.1.15,2013-04-23 23:19:00,
2013-04-23 19:24:00,42.4,38.5,30.21,NE,39,8.0,14.0,86,0.00,,,0.03,Wunderground v.1.15,2013-04-23 23:24:00,
2013-04-23 19:29:00,42.4,38.5,30.21,NNE,13,10.0,14.0,86,0.00,,,0.03,Wunderground v.1.15,2013-04-23 23:29:00,
2013-04-23 19:34:00,42.3,38.4,30.20,North,10,10.0,17.0,86,0.00,,,0.03,Wunderground v.1.15,2013-04-23 23:34:00,
2013-04-23 19:39:00,42.3,38.4,30.20,ENE,63,5.0,19.0,86,0.00,,,0.03,Wunderground v.1.15,2013-04-23 23:39:00,
2013-04-23 19:44:00,42.3,38.4,30.20,NE,40,11.0,13.0,86,0.00,,,0.03,Wunderground v.1.15,2013-04-23 23:44:00,
2013-04-23 19:49:00,42.3,38.4,30.20,NE,38,8.0,13.0,86,0.00,,,0.03,Wunderground v.1.15,2013-04-23 23:49:00,
2013-04-23 19:54:00,42.3,38.4,30.20,ENE,72,7.0,19.0,86,0.00,,,0.03,Wunderground v.1.15,2013-04-23 23:54:00,
2013-04-23 19:59:00,42.3,38.4,30.19,NE,38,7.0,19.0,86,0.00,,,0.03,Wunderground v.1.15,2013-04-23 23:59:00,
2013-04-23 20:04:00,42.3,38.4,30.19,NNE,22,13.0,13.0,86,0.00,,,0.03,Wunderground v.1.15,2013-04-24 00:04:00,
2013-04-23 20:09:00,42.3,38.4,30.19,NNE,13,8.0,16.0,86,0.00,,,0.03,Wunderground v.1.15,2013-04-24 00:09:00,
2013-04-23 20:14:00,42.2,38.3,30.19,NE,52,9.0,17.0,86,0.00,,,0.03,Wunderground v.1.15,2013-04-24 00:14:00,
2013-04-23 20:19:00,42.2,38.3,30.19,NE,43,15.0,18.0,86,0.00,,,0.03,Wunderground v.1.15,2013-04-24 00:19:00,
2013-04-23 20:24:00,42.1,38.2,30.19,North,355,9.0,18.0,86,0.00,,,0.03,Wunderground v.1.15,2013-04-24 00:24:00,
2013-04-23 20:29:00,42.1,38.2,30.18,North,355,11.0,20.0,86,0.00,,,0.03,Wunderground v.1.15,2013-04-24 00:29:00,
2013-04-23 20:34:00,42.0,38.1,30.18,NE,49,8.0,14.0,86,0.00,,,0.03,Wunderground v.1.15,2013-04-24 00:34:00,
2013-04-23 20:39:00,42.0,38.1,30.18,NNE,22,13.0,21.0,86,0.00,,,0.03,Wunderground v.1.15,2013-04-24 00:39:00,
2013-04-23 20:44:00,42.0,38.1,30.18,NNE,22,9.0,22.0,86,0.00,,,0.04,Wunderground v.1.15,2013-04-24 00:44:00,
2013-04-23 20:49:00,42.0,38.1,30.18,NE,39,13.0,22.0,86,0.00,,,0.04,Wunderground v.1.15,2013-04-24 00:49:00,
2013-04-23 20:54:00,42.0,38.1,30.18,NE,41,12.0,17.0,86,0.00,,,0.04,Wunderground v.1.15,2013-04-24 00:54:00,
2013-04-23 20:59:00,42.0,38.1,30.17,NE,52,9.0,17.0,86,0.00,,,0.04,Wunderground v.1.15,2013-04-24 00:59:00,
2013-04-23 21:04:00,42.0,38.1,30.17,NE,52,14.0,16.0,86,0.00,,,0.04,Wunderground v.1.15,2013-04-24 01:04:00,
2013-04-23 21:09:00,41.9,38.0,30.17,ENE,64,2.0,18.0,86,0.00,,,0.04,Wunderground v.1.15,2013-04-24 01:09:00,
2013-04-23 21:14:00,41.9,38.0,30.16,NE,35,10.0,17.0,86,0.00,,,0.04,Wunderground v.1.15,2013-04-24 01:14:00,
2013-04-23 21:19:00,41.9,38.0,30.15,NE,38,6.0,17.0,86,0.00,,,0.04,Wunderground v.1.15,2013-04-24 01:19:00,
2013-04-23 21:24:00,41.9,38.0,30.15,NE,44,9.0,14.0,86,0.00,,,0.04,Wunderground v.1.15,2013-04-24 01:24:00,
2013-04-23 21:30:00,41.9,38.0,30.15,North,5,4.0,7.0,86,0.00,,,0.04,Wunderground v.1.15,2013-04-24 01:30:00,
2013-04-23 21:35:00,41.9,38.0,30.14,NE,40,11.0,18.0,86,0.00,,,0.04,Wunderground v.1.15,2013-04-24 01:35:00,
2013-04-23 21:40:00,41.9,38.0,30.15,NE,36,5.0,7.0,86,0.00,,,0.04,Wunderground v.1.15,2013-04-24 01:40:00,
2013-04-23 21:45:00,42.0,38.1,30.15,NNE,19,9.0,12.0,86,0.00,,,0.04,Wunderground v.1.15,2013-04-24 01:45:00,
2013-04-23 21:50:00,42.0,38.1,30.14,NE,55,9.0,9.0,86,0.00,,,0.04,Wunderground v.1.15,2013-04-24 01:50:00,
2013-04-23 21:55:00,42.0,38.1,30.15,NNE,33,3.0,16.0,86,0.00,,,0.04,Wunderground v.1.15,2013-04-24 01:55:00,
2013-04-23 22:00:00,42.0,38.1,30.15,North,5,8.0,8.0,86,0.00,,,0.04,Wunderground v.1.15,2013-04-24 02:00:00,
2013-04-23 22:05:00,42.0,38.1,30.14,North,360,6.0,11.0,86,0.00,,,0.04,Wunderground v.1.15,2013-04-24 02:05:00,
2013-04-23 22:10:00,42.1,38.2,30.15,NNE,14,8.0,13.0,86,0.00,,,0.04,Wunderground v.1.15,2013-04-24 02:10:00,
2013-04-23 22:15:00,42.1,38.2,30.15,NNE,17,8.0,13.0,86,0.00,,,0.04,Wunderground v.1.15,2013-04-24 02:15:00,
2013-04-23 22:21:00,42.1,38.2,30.15,NNE,24,10.0,12.0,86,0.00,,,0.04,Wunderground v.1.15,2013-04-24 02:21:00,
2013-04-23 22:26:00,42.2,38.3,30.14,North,360,7.0,12.0,86,0.00,,,0.04,Wunderground v.1.15,2013-04-24 02:26:00,
2013-04-23 22:31:00,42.2,38.3,30.14,North,5,10.0,10.0,86,0.00,,,0.04,Wunderground v.1.15,2013-04-24 02:31:00,
2013-04-23 22:36:00,42.2,38.3,30.14,North,360,10.0,13.0,86,0.00,,,0.04,Wunderground v.1.15,2013-04-24 02:36:00,
2013-04-23 22:41:00,42.2,38.3,30.13,North,9,6.0,11.0,86,0.00,,,0.04,Wunderground v.1.15,2013-04-24 02:41:00,
2013-04-23 22:47:00,42.2,38.3,30.13,North,10,8.0,11.0,86,0.00,,,0.04,Wunderground v.1.15,2013-04-24 02:47:00,
2013-04-23 22:52:00,42.3,38.4,30.13,NNE,28,4.0,12.0,86,0.00,,,0.04,Wunderground v.1.15,2013-04-24 02:52:00,
2013-04-23 22:58:00,42.3,38.4,30.13,North,11,10.0,12.0,86,0.00,,,0.04,Wunderground v.1.15,2013-04-24 02:58:00,
2013-04-23 23:03:00,42.4,38.5,30.12,NNE,13,7.0,11.0,86,0.00,,,0.04,Wunderground v.1.15,2013-04-24 03:03:00,
2013-04-23 23:08:00,42.4,38.8,30.13,ENE,57,8.0,11.0,87,0.00,,,0.04,Wunderground v.1.15,2013-04-24 03:08:00,
2013-04-23 23:14:00,42.4,38.8,30.12,NNE,27,8.0,12.0,87,0.00,,,0.04,Wunderground v.1.15,2013-04-24 03:14:00,
2013-04-23 23:19:00,42.4,38.8,30.11,NW,317,9.0,13.0,87,0.00,,,0.04,Wunderground v.1.15,2013-04-24 03:19:00,
2013-04-23 23:24:00,42.5,38.9,30.11,NNE,22,7.0,15.0,87,0.00,,,0.04,Wunderground v.1.15,2013-04-24 03:24:00,
2013-04-23 23:29:00,42.5,38.9,30.11,NNE,14,9.0,15.0,87,0.00,,,0.04,Wunderground v.1.15,2013-04-24 03:29:00,
2013-04-23 23:34:00,42.5,38.9,30.10,NNE,25,9.0,12.0,87,0.00,,,0.04,Wunderground v.1.15,2013-04-24 03:34:00,
2013-04-23 23:39:00,42.5,38.9,30.10,NNW,348,5.0,14.0,87,0.00,,,0.04,Wunderground v.1.15,2013-04-24 03:39:00,
2013-04-23 23:44:00,42.5,38.9,30.10,NE,49,8.0,12.0,87,0.00,,,0.04,Wunderground v.1.15,2013-04-24 03:44:00,
2013-04-23 23:50:00,42.5,38.9,30.09,NNE,18,6.0,6.0,87,0.00,,,0.04,Wunderground v.1.15,2013-04-24 03:50:00,
2013-04-23 23:55:00,42.5,38.9,30.09,NNW,348,6.0,15.0,87,0.00,,,0.04,Wunderground v.1.15,2013-04-24 03:55:00,